Regional Weather Roundup
Issued by NWS Sterling, VA

Home | Current Version | Previous Version | Graphics & Text | Print | Product List | Glossary On
Versions: 1 2 3 4 5 6 7 8 9 10 11 12 13 14 15 16 17 18 19 20 21 22 23 24 25 26 27 28 29 30 31 32 33 34 35 36 37 38 39 40 41 42 43 44 45 46 47 48 49 50
000
ASUS41 KLWX 030810
RWRLWX

REGIONAL WEATHER ROUNDUP
NATIONAL WEATHER SERVICE BALTIMORE MD/WASHINGTON DC
300 AM EST TUE MAR 03 2015

Note: "FAIR" indicates few or no clouds below 12,000 feet
with no significant weather and/or obstructions to visibility.
 TC=TEMPERATURE CELSIUS

 * =Non NWS site. Station does not report precipitation (e.g. rain,
    snow, etc.), thunder, or fog.

DCZ001-MDZ009-015-VAZ040>042-051-053>054-030900-
WASHINGTON METRO

CITY           SKY/WX    TMP DP  RH WIND       PRES   REMARKS
WASHINGTON NAT CLOUDY    32  16  51 N9        30.41F WCI  24
DULLES         CLOUDY    28  15  58 N5        30.41R
ANDREWS AFB    MOCLDY    26  16  64 N5        30.38F
FT BELVOIR     MOCLDY    29  15  56 VRB1      30.41S
QUANTICO       MOCLDY    30  17  58 NE3       30.43S
COLLEGE PARK*  MOCLDY    27  23  86 CALM      30.41F
LEESBURG*      MOCLDY    30  19  64 NE7       30.41S
MANASSAS*      MOCLDY    27  19  74 CALM      30.41S
GAITHERSBURG*  MOCLDY    21  12  68 CALM      30.43S

$$

MDZ006>007-011-014-030900-
BALTIMORE METRO

CITY           SKY/WX    TMP DP  RH WIND       PRES   REMARKS
BWI AIRPORT    CLOUDY    26  14  60 CALM      30.40F
MD SCIENCE CTR   N/A      1  32 100 MISG      30.42R
MARTIN STATE   PTCLDY    27  19  74 CALM      30.43S
ANNAPOLIS      MOCLDY    29  16  58 NW3       30.41S
FORT MEADE*    MOCLDY    23  19  86 CALM      30.43F

$$

MDZ012-015-019>023-030900-
MARYLAND EASTERN SHORE

CITY           SKY/WX    TMP DP  RH WIND       PRES   REMARKS
OCEAN CITY     PTCLDY    28  16  60 N6        30.40F
SALISBURY      PTCLDY    30  18  60 NW6       30.40F
BAY BRIDGE AP*   N/A     28  19  69 NW3       30.41F
CAMBRIDGE*     PTCLDY    32  18  55 N3        30.41R
EASTON*        PTCLDY    30  19  64 N5        30.44S

$$

MDZ017>025-030900-
SOUTHERN MARYLAND

CITY           SKY/WX    TMP DP  RH WIND       PRES   REMARKS
PATUXENT RIVER PTCLDY    30  17  58 N5        30.42S
ST INIGOES     NOT AVBL
LEONARDTOWN*   PTCLDY    30  16  55 CALM      30.43R

$$

MDZ003>005-030900-
NORTH CENTRAL MARYLAND

CITY           SKY/WX    TMP DP  RH WIND       PRES   REMARKS
FREDERICK*     MOCLDY    23  16  74 CALM      30.44S
HAGERSTOWN APT MOCLDY    25  13  60 S3        30.39S
WESTMINSTER*   MOCLDY    25  14  63 CALM      30.36F

$$

MDZ501>502-030900-
WESTERN MARYLAND

CITY           SKY/WX    TMP DP  RH WIND       PRES   REMARKS
OAKLAND*       MOCLDY    19  16  86 S7        30.19F
CUMBERLAND*    NOT AVBL

$$

VAZ025>031-030900-
SHENANDOAH VALLEY

CITY           SKY/WX    TMP DP  RH WIND       PRES   REMARKS
WINCHESTER*    MOCLDY    28  12  50 N3        30.36F
FRONT ROYAL*   FAIR      27  16  63 CALM      30.36F
LURAY*         FAIR      28  21  74 NE3       30.35F
NEW MARKET*    FAIR      22  17  82 NE3       30.34F
STAUNTON*      CLOUDY    27  18  69 CALM      30.35S
WAYNESBORO*    CLOUDY    30  17  57 N3        30.31S

$$

WVZ021-048>050-054>055-030900-
EASTERN WEST VIRGINIA PANHANDLE

CITY           SKY/WX    TMP DP  RH WIND       PRES   REMARKS
MARTINSBURG    MOCLDY    24  15  68 NE5       30.39F
PETERSBURG*    NOT AVBL

$$

VAZ036>039-050-030900-
CENTRAL FOOTHILLS

CITY           SKY/WX    TMP DP  RH WIND       PRES   REMARKS
CHARLOTTESVILL CLOUDY    29  17  61 CALM      30.37F
CULPEPER*      PTCLDY    28  18  64 CALM      30.40S
ORANGE*        MOCLDY    28  21  74 CALM      30.40S
GORDONSVILLE*  FAIR      25  19  77 CALM      30.38S
WARRENTON*     FAIR      29  21  74 E3        30.39F

$$

VAZ055>057-030900-
NORTH AND CENTRAL PIEDMONT

CITY           SKY/WX    TMP DP  RH WIND       PRES   REMARKS
FREDERICKSBRG* PTCLDY    30  22  71 E3        30.40F
STAFFORD*      PTCLDY    26  17  69 CALM      30.45F

$$

NCZ024-NYZ072-PAZ021-071-VAZ022-071-030900-
OTHER REGIONAL OBSERVATIONS

CITY           SKY/WX    TMP DP  RH WIND       PRES   REMARKS
NEW YORK CITY  CLEAR     25   8  48 CALM      30.40F
PHILADELPHIA   PTCLDY    27   9  46 N12       30.43S WCI  17
PITTSBURGH     CLOUDY    19  13  77 E5        30.30F HAZE
ROANOKE        MOCLDY    34  19  54 S3        30.35F
RICHMOND       CLOUDY    31  16  54 NE5       30.39F
RALEIGH        MOCLDY    41  30  65 E9        30.36S

$$

ANZ530>537-030900-
MARINE OBSERVATIONS

STATION/POSITION TIME  TEMP    WIND        PRES
                       AIR SEA DIR/SP/G
                 (UTC) (F)     (DEG/KT/KT) (MB)
THOMAS PT LIGHT  0800   30 32  340/  8/  9 1030.7F
BALT KEY BRIDGE  0700          290/  6/  7   N/A
COVE POINT       0700           20/ 13/ 15   N/A
LEWISETTA        0700           CALM  /  5   N/A
SOLOMONS ISLAND  0700      33                N/A

$$




USA.gov is the U.S. government's official web portal to all federal, state and local government web resources and services.